Location: Fairmont
(43.6520°N, 94.4610°W)
Time: 21:10:17
(UTC-05:00)

Cosmos-2242 - Visible Passes

Search period start: 28 May 2015 00:00
Search period end: 07 June 2015 00:00
Orbit: 593 x 622 km, 82.5° (Epoch: 27 May)

Date Brightness Start Highest point End Pass type
(mag) Time Alt. Az. Time Alt. Az. Time Alt. Az.
28 May 2.9 22:07:35 10° N 22:11:53 77° E 22:15:17 16° SSE visible
29 May 3.4 22:21:18 10° NNW 22:25:32 61° W 22:29:14 13° S visible
30 May 4.4 22:35:11 10° NNW 22:39:07 35° W 22:43:01 10° SSW visible
31 May 5.2 22:49:21 10° NW 22:52:40 21° W 22:55:52 10° SW visible
01 Jun 3.2 21:24:43 10° N 21:28:57 56° E 21:33:11 10° SSE visible
01 Jun 5.7 23:04:07 10° WNW 23:06:09 13° W 23:07:59 10° WSW visible
02 Jun 3.1 21:38:19 10° N 21:42:37 84° W 21:46:56 10° S visible
03 Jun 3.9 21:52:05 10° NNW 21:56:15 48° W 22:00:24 10° SSW visible
04 Jun 4.9 22:06:04 10° NNW 22:09:49 28° W 22:13:29 10° SSW visible
05 Jun 5.6 22:20:25 10° NW 22:23:19 17° W 22:26:06 10° SW visible
06 Jun 6.1 22:36:05 10° WNW 22:36:47 10° W 22:37:14 10° W visible
